Location: Asheville, NC
(35.6000°N, 82.5500°W)
Time: 10:58:59
(UTC-04:00)

Vanguard 3 - Pass Details

Date: 09 February 2018
Orbit: 507 x 3264 km, 33.4° (Epoch: 24 May)

Event Time Altitude Azimuth Distance (km) Brightness Sun altitude
Rises 22:01:19 0° 272° (W) 3,185 10.8 -47.8°
Enters shadow 22:02:43 - 270° (W) 2,658 10.3 -48.1°
Reaches altitude 10° 22:03:16 10° 270° (W) 2,459 - -48.2°
Maximum altitude 22:09:04 71° 187° (S) 1,248 - -49.3°
Drops below altitude 10° 22:19:35 10° 106° (ESE) 4,312 - -51.3°
Sets 22:24:07 0° 104° (ESE) 5,773 - -52.1°
